JA1KWV-11 Weather Reports


Display with metric or nautical units.
time (UTC)temp
F
wind
direction
speed
MPH
gust
MPH
rain 1hr
in
rain 24hr
in
rain mn
in
humidity
%
barometer
mb
20260509224025 77 267 0.0 0.0 0.00 0.00 0.00 62 1020.7
20260509223225 77 267 0.0 0.0 0.00 0.00 0.00 62 1020.8
20260509222425 77 267 0.0 0.0 0.00 0.00 0.00 62 1021.0
20260509221624 76 267 0.0 0.0 0.00 0.00 0.00 62 1020.6
20260509220824 76 267 0.0 0.0 0.00 0.00 0.00 61 1020.6
20260509220024 76 267 0.0 0.0 0.00 0.00 0.00 61 1020.6
20260509215224 76 267 0.0 0.0 0.00 0.00 0.00 62 1020.6
20260509214424 76 267 0.0 0.0 0.00 0.00 0.00 62 1020.3
20260509213623 76 267 0.0 0.0 0.00 0.00 0.00 61 1020.3
20260509212823 76 267 0.0 0.0 0.00 0.00 0.00 60 1020.4
20260509212023 76 267 0.0 0.0 0.00 0.00 0.00 61 1020.2
20260509211223 76 267 0.0 0.0 0.00 0.00 0.00 60 1020.0
20260509210422 76 267 0.0 0.0 0.00 0.00 0.00 60 1020.0
20260509205622 76 267 0.0 0.0 0.00 0.00 0.00 61 1020.0
20260509204822 76 267 0.0 0.0 0.00 0.00 0.00 58 1019.8
20260509204022 76 267 0.0 0.0 0.00 0.00 0.00 59 1019.8
20260509203221 76 267 0.0 0.0 0.00 0.00 0.00 59 1019.8
20260509202421 76 267 0.0 0.0 0.00 0.00 0.00 59 1019.5
20260509201621 76 267 0.0 0.0 0.00 0.00 0.00 59 1019.5
20260509200821 76 267 0.0 0.0 0.00 0.00 0.00 59 1019.5
20260509200021 76 267 0.0 0.0 0.00 0.00 0.00 59 1019.3
20260509195220 76 267 0.0 0.0 0.00 0.00 0.00 58 1019.2
20260509194420 76 267 0.0 0.0 0.00 0.00 0.00 59 1019.2
20260509193620 76 267 0.0 0.0 0.00 0.00 0.00 58 1019.1
20260509192820 76 267 0.0 0.0 0.00 0.00 0.00 58 1019.3
20260509192020 76 267 0.0 0.0 0.00 0.00 0.00 58 1018.9
20260509191219 76 267 0.0 0.0 0.00 0.00 0.00 59 1018.8
20260509190419 76 267 0.0 0.0 0.00 0.00 0.00 58 1018.6
20260509185619 76 267 0.0 0.0 0.00 0.00 0.00 58 1018.8
20260509184819 76 267 0.0 0.0 0.00 0.00 0.00 59 1018.4
20260509184018 76 267 0.0 0.0 0.00 0.00 0.00 58 1018.5
20260509183218 76 267 0.0 0.0 0.00 0.00 0.00 57 1018.3
20260509182418 76 267 0.0 0.0 0.00 0.00 0.00 57 1018.2
20260509181618 76 267 0.0 0.0 0.00 0.00 0.00 57 1018.2
20260509180818 76 267 0.0 0.0 0.00 0.00 0.00 56 1017.9
20260509180017 76 267 0.0 0.0 0.00 0.00 0.00 57 1018.0
20260509175217 76 267 0.0 0.0 0.00 0.00 0.00 57 1018.0
20260509174417 76 267 0.0 0.0 0.00 0.00 0.00 56 1017.9
20260509173617 76 267 0.0 0.0 0.00 0.00 0.00 56 1017.9
20260509172817 76 267 0.0 0.0 0.00 0.00 0.00 56 1017.9
20260509172016 76 267 0.0 0.0 0.00 0.00 0.00 56 1017.6
20260509171216 77 267 0.0 0.0 0.00 0.00 0.00 57 1017.8
20260509170416 77 267 0.0 0.0 0.00 0.00 0.00 57 1017.8
20260509165615 77 267 0.0 0.0 0.00 0.00 0.00 56 1017.9
20260509164815 77 267 0.0 0.0 0.00 0.00 0.00 56 1017.7
20260509164015 76 267 0.0 0.0 0.00 0.00 0.00 56 1017.6
20260509163215 77 267 0.0 0.0 0.00 0.00 0.00 56 1017.8
20260509162415 76 267 0.0 0.0 0.00 0.00 0.00 55 1017.6
20260509161614 77 267 0.0 0.0 0.00 0.00 0.00 54 1017.7
20260509160814 76 267 0.0 0.0 0.00 0.00 0.00 54 1017.3
20260509160014 77 267 0.0 0.0 0.00 0.00 0.00 54 1017.3
20260509155214 77 267 0.0 0.0 0.00 0.00 0.00 52 1017.4
20260509154414 77 267 0.0 0.0 0.00 0.00 0.00 54 1017.1
20260509153613 77 267 0.0 0.0 0.00 0.00 0.00 54 1017.2
20260509152813 77 267 0.0 0.0 0.00 0.00 0.00 53 1017.2
20260509152013 77 267 0.0 0.0 0.00 0.00 0.00 54 1017.1
20260509151213 77 267 0.0 0.0 0.00 0.00 0.00 54 1017.4
20260509150412 77 267 0.0 0.0 0.00 0.00 0.00 53 1017.3
20260509145612 77 267 0.0 0.0 0.00 0.00 0.00 53 1017.5
20260509144812 77 267 0.0 0.0 0.00 0.00 0.00 53 1017.3
20260509144012 77 267 0.0 0.0 0.00 0.00 0.00 52 1017.3
20260509143212 77 267 0.0 0.0 0.00 0.00 0.00 53 1017.1
20260509142411 77 267 0.0 0.0 0.00 0.00 0.00 54 1017.0
20260509141611 77 267 0.0 0.0 0.00 0.00 0.00 54 1017.1
20260509140811 77 267 0.0 0.0 0.00 0.00 0.00 54 1017.0
20260509140011 77 267 0.0 0.0 0.00 0.00 0.00 53 1016.8
20260509135210 77 267 0.0 0.0 0.00 0.00 0.00 53 1016.9
20260509134410 77 267 0.0 0.0 0.00 0.00 0.00 53 1016.7
20260509133610 77 267 0.0 0.0 0.00 0.00 0.00 53 1016.7
20260509132810 77 267 0.0 0.0 0.00 0.00 0.00 54 1016.2
20260509132010 77 267 0.0 0.0 0.00 0.00 0.00 53 1016.4
20260509131209 77 267 0.0 0.0 0.00 0.00 0.00 53 1016.5
20260509130409 77 267 0.0 0.0 0.00 0.00 0.00 54 1016.4
20260509125609 77 267 0.0 0.0 0.00 0.00 0.00 52 1016.4
20260509124809 77 267 0.0 0.0 0.00 0.00 0.00 53 1016.2
20260509124008 77 267 0.0 0.0 0.00 0.00 0.00 53 1016.2
20260509123208 77 267 0.0 0.0 0.00 0.00 0.00 53 1016.1
20260509122408 77 267 0.0 0.0 0.00 0.00 0.00 54 1016.1
20260509121608 77 267 0.0 0.0 0.00 0.00 0.00 53 1016.0
20260509120808 77 267 0.0 0.0 0.00 0.00 0.00 53 1016.1
20260509120007 77 267 0.0 0.0 0.00 0.00 0.00 53 1015.8
20260509115207 77 267 0.0 0.0 0.00 0.00 0.00 54 1016.0
20260509114407 77 267 0.0 0.0 0.00 0.00 0.00 54 1015.7
20260509113607 77 267 0.0 0.0 0.00 0.00 0.00 55 1015.8
20260509112807 77 267 0.0 0.0 0.00 0.00 0.00 54 1015.4
20260509112006 77 267 0.0 0.0 0.00 0.00 0.00 54 1015.4
20260509111206 77 267 0.0 0.0 0.00 0.00 0.00 55 1015.6
20260509110406 77 267 0.0 0.0 0.00 0.00 0.00 55 1015.2
20260509105606 77 267 0.0 0.0 0.00 0.00 0.00 55 1015.2
20260509104805 77 267 0.0 0.0 0.00 0.00 0.00 56 1015.0
20260509104005 78 267 0.0 0.0 0.00 0.00 0.00 55 1014.9
20260509103205 77 267 0.0 0.0 0.00 0.00 0.00 56 1014.5
20260509102405 78 267 0.0 0.0 0.00 0.00 0.00 57 1014.5
20260509101605 78 267 0.0 0.0 0.00 0.00 0.00 57 1014.3
20260509100804 78 267 0.0 0.0 0.00 0.00 0.00 56 1014.4
20260509100005 78 267 0.0 0.0 0.00 0.00 0.00 56 1014.2
20260509095204 78 267 0.0 0.0 0.00 0.00 0.00 57 1014.1
20260509094404 78 267 0.0 0.0 0.00 0.00 0.00 56 1014.0
20260509093604 78 267 0.0 0.0 0.00 0.00 0.00 56 1014.0
20260509092803 78 267 0.0 0.0 0.00 0.00 0.00 56 1013.7
20260509092003 78 267 0.0 0.0 0.00 0.00 0.00 57 1013.8
20260509091203 78 267 0.0 0.0 0.00 0.00 0.00 57 1013.4
20260509090403 78 267 0.0 0.0 0.00 0.00 0.00 58 1013.3
20260509085602 78 267 0.0 0.0 0.00 0.00 0.00 56 1013.4
20260509084802 78 267 0.0 0.0 0.00 0.00 0.00 56 1013.2
20260509084002 78 267 0.0 0.0 0.00 0.00 0.00 57 1013.0
20260509083202 78 267 0.0 0.0 0.00 0.00 0.00 56 1012.9
20260509082402 78 267 0.0 0.0 0.00 0.00 0.00 54 1012.6
20260509081601 78 267 0.0 0.0 0.00 0.00 0.00 55 1012.7
20260509080801 78 267 0.0 0.0 0.00 0.00 0.00 55 1012.7
20260509080001 78 267 0.0 0.0 0.00 0.00 0.00 53 1012.3
20260509075201 77 267 0.0 0.0 0.00 0.00 0.00 55 1012.1
20260509074400 78 267 0.0 0.0 0.00 0.00 0.00 56 1011.9
20260509073600 78 267 0.0 0.0 0.00 0.00 0.00 56 1011.9
20260509072800 77 267 0.0 0.0 0.00 0.00 0.00 58 1011.6
20260509072000 78 267 0.0 0.0 0.00 0.00 0.00 57 1011.5
20260509071200 78 267 0.0 0.0 0.00 0.00 0.00 59 1011.5
20260509070359 77 267 0.0 0.0 0.00 0.00 0.00 59 1011.2
20260509065559 78 267 0.0 0.0 0.00 0.00 0.00 59 1011.3
20260509064759 77 267 0.0 0.0 0.00 0.00 0.00 60 1010.8
20260509063959 77 267 0.0 0.0 0.00 0.00 0.00 59 1011.0
20260509063158 77 267 0.0 0.0 0.00 0.00 0.00 59 1010.8
20260509062358 77 267 0.0 0.0 0.00 0.00 0.00 59 1011.0
20260509061558 77 267 0.0 0.0 0.00 0.00 0.00 58 1011.0
20260509060758 77 267 0.0 0.0 0.00 0.00 0.00 59 1010.6
20260509055958 77 267 0.0 0.0 0.00 0.00 0.00 59 1010.5
20260509055157 77 267 0.0 0.0 0.00 0.00 0.00 58 1010.6
20260509054357 77 267 0.0 0.0 0.00 0.00 0.00 59 1010.6
20260509053557 77 267 0.0 0.0 0.00 0.00 0.00 59 1010.6
20260509052757 77 267 0.0 0.0 0.00 0.00 0.00 58 1010.5
20260509051956 77 267 0.0 0.0 0.00 0.00 0.00 59 1010.7
20260509051156 77 267 0.0 0.0 0.00 0.00 0.00 59 1010.5
20260509050356 77 267 0.0 0.0 0.00 0.00 0.00 58 1010.6
20260509045556 77 267 0.0 0.0 0.00 0.00 0.00 58 1010.4
20260509044756 77 267 0.0 0.0 0.00 0.00 0.00 58 1010.6
20260509043955 77 267 0.0 0.0 0.00 0.00 0.00 59 1010.6
20260509043155 77 267 0.0 0.0 0.00 0.00 0.00 58 1010.8
20260509042355 77 267 0.0 0.0 0.00 0.00 0.00 58 1010.6
20260509041555 78 267 0.0 0.0 0.00 0.00 0.00 58 1010.9
20260509040755 78 267 0.0 0.0 0.00 0.00 0.00 58 1010.8
20260509035954 78 267 0.0 0.0 0.00 0.00 0.00 57 1010.9
20260509035154 77 267 0.0 0.0 0.00 0.00 0.00 58 1010.7
20260509034354 77 267 0.0 0.0 0.00 0.00 0.00 58 1010.3
20260509033554 78 267 0.0 0.0 0.00 0.00 0.00 57 1010.5
20260509032753 78 267 0.0 0.0 0.00 0.00 0.00 57 1010.6
20260509031953 78 267 0.0 0.0 0.00 0.00 0.00 58 1010.5
20260509031153 78 267 0.0 0.0 0.00 0.00 0.00 58 1010.8
20260509030353 78 267 0.0 0.0 0.00 0.00 0.00 58 1010.7
20260509025552 78 267 0.0 0.0 0.00 0.00 0.00 58 1010.4
20260509024752 78 267 0.0 0.0 0.00 0.00 0.00 58 1010.3
20260509023952 78 267 0.0 0.0 0.00 0.00 0.00 58 1010.7
20260509023152 78 267 0.0 0.0 0.00 0.00 0.00 58 1010.7
20260509022352 78 267 0.0 0.0 0.00 0.00 0.00 59 1010.6
20260509021551 78 267 0.0 0.0 0.00 0.00 0.00 58 1010.6
20260509020751 78 267 0.0 0.0 0.00 0.00 0.00 59 1010.5
20260509015951 78 267 0.0 0.0 0.00 0.00 0.00 59 1010.4
20260509015151 78 267 0.0 0.0 0.00 0.00 0.00 59 1010.4
20260509014350 78 267 0.0 0.0 0.00 0.00 0.00 58 1010.5
20260509013550 78 267 0.0 0.0 0.00 0.00 0.00 58 1010.3
20260509012750 78 267 0.0 0.0 0.00 0.00 0.00 58 1010.6
20260509011950 78 267 0.0 0.0 0.00 0.00 0.00 59 1010.6
20260509011150 78 267 0.0 0.0 0.00 0.00 0.00 59 1010.5
20260509010349 78 267 0.0 0.0 0.00 0.00 0.00 58 1010.6
20260509005549 78 267 0.0 0.0 0.00 0.00 0.00 59 1009.7
20260509004749 78 267 0.0 0.0 0.00 0.00 0.00 59 1009.8
20260509003949 78 267 0.0 0.0 0.00 0.00 0.00 60 1009.8
20260509003149 78 267 0.0 0.0 0.00 0.00 0.00 62 1010.1
20260509002348 79 267 0.0 0.0 0.00 0.00 0.00 62 1010.1
20260509001548 79 267 0.0 0.0 0.00 0.00 0.00 63 1009.8
20260509000748 79 267 0.0 0.0 0.00 0.00 0.00 65 1009.9
20260508235948 79 267 0.0 0.0 0.00 0.00 0.00 65 1009.8
20260508235147 79 267 0.0 0.0 0.00 0.00 0.00 64 1009.5
20260508234347 79 267 0.0 0.0 0.00 0.00 0.00 66 1009.6
20260508233547 79 267 0.0 0.0 0.00 0.00 0.00 65 1009.5
20260508232747 79 267 0.0 0.0 0.00 0.00 0.00 67 1009.4
20260508231947 79 267 0.0 0.0 0.00 0.00 0.00 68 1009.3
20260508231146 78 267 0.0 0.0 0.00 0.00 0.00 67 1009.2
20260508230346 78 267 0.0 0.0 0.00 0.00 0.00 69 1008.9
20260508225546 78 267 0.0 0.0 0.00 0.00 0.00 70 1008.7
20260508224746 78 267 0.0 0.0 0.00 0.00 0.00 69 1008.7